Time,TemperatureF,DewpointF,PressureIn,WindDirection,WindDirectionDegrees,WindSpeedMPH,WindSpeedGustMPH,Humidity,HourlyPrecipIn,Conditions,Clouds,dailyrainin,SoftwareType,DateUTC
2013-03-13 00:00:00,50.5,49.7,29.70,South,172,0.0,8.0,97,0.02,,---,0.42,VWS V14.01,2013-03-13 03:00:00,
2013-03-13 00:07:00,50.2,49.4,29.70,South,172,0.0,8.0,97,0.02,,---,0.42,VWS V14.01,2013-03-13 03:07:00,
2013-03-13 00:13:00,49.9,48.8,29.70,South,172,0.0,8.0,96,0.03,,---,0.43,VWS V14.01,2013-03-13 03:13:00,
2013-03-13 00:19:00,49.6,48.5,29.70,South,172,0.0,8.0,96,0.03,,---,0.43,VWS V14.01,2013-03-13 03:19:00,
2013-03-13 00:25:00,49.3,48.2,29.70,South,172,0.0,8.0,96,0.03,,---,0.43,VWS V14.01,2013-03-13 03:25:00,
2013-03-13 00:31:00,49.2,48.1,29.70,South,172,0.0,8.0,96,0.03,,---,0.43,VWS V14.01,2013-03-13 03:31:00,
2013-03-13 00:36:00,49.2,48.1,29.70,South,172,0.0,8.0,96,0.02,,---,0.43,VWS V14.01,2013-03-13 03:36:00,
2013-03-13 00:42:00,48.9,48.1,29.70,South,172,0.0,8.0,97,0.02,,---,0.43,VWS V14.01,2013-03-13 03:42:00,
2013-03-13 00:48:00,49.0,48.2,29.70,South,172,1.0,8.0,97,0.02,,---,0.43,VWS V14.01,2013-03-13 03:48:00,
2013-03-13 00:54:00,49.0,48.2,29.70,South,172,1.0,8.0,97,0.02,,---,0.43,VWS V14.01,2013-03-13 03:54:00,
2013-03-13 01:00:00,49.0,48.2,29.69,South,172,0.0,8.0,97,0.02,,---,0.43,VWS V14.01,2013-03-13 04:00:00,
2013-03-13 01:03:00,49.3,48.5,29.69,South,172,1.0,8.0,97,0.01,,---,0.00,VWS V14.01,2013-03-13 04:03:00,
2013-03-13 01:06:00,49.4,48.6,29.69,South,172,1.0,8.0,97,0.01,,---,0.00,VWS V14.01,2013-03-13 04:06:00,
2013-03-13 01:12:00,49.6,48.8,29.69,South,172,1.0,8.0,97,0.01,,---,0.00,VWS V14.01,2013-03-13 04:12:00,
2013-03-13 01:13:00,49.7,48.9,29.69,South,172,2.0,8.0,97,0.01,,---,0.00,VWS V14.01,2013-03-13 04:13:00,
2013-03-13 01:19:00,50.3,49.5,29.69,South,172,0.0,8.0,97,0.01,,---,0.00,VWS V14.01,2013-03-13 04:19:00,
2013-03-13 01:25:00,50.4,49.6,29.70,South,172,4.0,8.0,97,0.01,,---,0.00,VWS V14.01,2013-03-13 04:25:00,
2013-03-13 01:30:00,50.3,49.5,29.70,South,172,2.0,8.0,97,0.01,,---,0.00,VWS V14.01,2013-03-13 04:30:00,
2013-03-13 01:36:00,50.5,49.7,29.70,South,169,1.0,8.0,97,0.00,,---,0.00,VWS V14.01,2013-03-13 04:36:00,
2013-03-13 01:42:00,50.6,49.8,29.70,SSW,205,3.0,8.0,97,0.00,,---,0.00,VWS V14.01,2013-03-13 04:42:00,
2013-03-13 01:48:00,50.7,49.9,29.70,SSW,205,1.0,8.0,97,0.00,,---,0.00,VWS V14.01,2013-03-13 04:48:00,
2013-03-13 01:54:00,50.8,50.0,29.69,SSW,205,0.0,8.0,97,0.00,,---,0.00,VWS V14.01,2013-03-13 04:54:00,
2013-03-13 02:00:00,50.6,49.8,29.69,SSW,205,0.0,8.0,97,0.00,,---,0.00,VWS V14.01,2013-03-13 05:00:00,
2013-03-13 02:06:00,50.8,50.0,29.70,SSW,205,1.0,8.0,97,0.00,,---,0.00,VWS V14.01,2013-03-13 05:06:00,
2013-03-13 02:11:00,50.8,50.0,29.70,SSW,205,2.0,8.0,97,0.00,,---,0.00,VWS V14.01,2013-03-13 05:11:00,
2013-03-13 02:17:00,50.7,49.9,29.69,SSW,205,0.0,8.0,97,0.00,,---,0.00,VWS V14.01,2013-03-13 05:17:00,
2013-03-13 02:23:00,50.6,49.8,29.70,WSW,240,1.0,8.0,97,0.00,,---,0.00,VWS V14.01,2013-03-13 05:23:00,
2013-03-13 02:30:00,50.1,49.3,29.70,SW,229,3.0,8.0,97,0.00,,---,0.00,VWS V14.01,2013-03-13 05:30:00,
2013-03-13 02:36:00,49.1,48.3,29.70,West,262,4.0,8.0,97,0.00,,---,0.00,VWS V14.01,2013-03-13 05:36:00,
2013-03-13 02:42:00,48.1,47.0,29.71,WNW,298,3.0,8.0,96,0.00,,---,0.00,VWS V14.01,2013-03-13 05:42:00,
2013-03-13 02:48:00,46.9,45.5,29.71,WNW,296,2.0,8.0,95,0.00,,---,0.00,VWS V14.01,2013-03-13 05:48:00,
2013-03-13 02:54:00,46.3,44.7,29.71,SW,223,1.0,8.0,94,0.00,,---,0.00,VWS V14.01,2013-03-13 05:54:00,
2013-03-13 03:00:00,45.7,44.1,29.72,West,267,2.0,8.0,94,0.00,,---,0.00,VWS V14.01,2013-03-13 06:00:00,
2013-03-13 03:07:00,45.1,43.5,29.71,West,279,3.0,8.0,94,0.00,,---,0.00,VWS V14.01,2013-03-13 06:07:00,
2013-03-13 03:13:00,44.9,43.3,29.72,West,267,0.0,8.0,94,0.00,,---,0.00,VWS V14.01,2013-03-13 06:13:00,
2013-03-13 03:19:00,44.6,42.7,29.72,West,267,0.0,8.0,93,0.00,,---,0.00,VWS V14.01,2013-03-13 06:19:00,
2013-03-13 03:25:00,44.2,42.3,29.72,West,277,1.0,8.0,93,0.00,,---,0.00,VWS V14.01,2013-03-13 06:25:00,
2013-03-13 03:30:00,44.0,42.4,29.71,WNW,294,0.0,8.0,94,0.00,,---,0.00,VWS V14.01,2013-03-13 06:30:00,
2013-03-13 03:36:00,43.6,42.0,29.71,WNW,294,1.0,8.0,94,0.00,,---,0.00,VWS V14.01,2013-03-13 06:36:00,
2013-03-13 03:42:00,43.4,41.8,29.71,WNW,296,0.0,8.0,94,0.00,,---,0.00,VWS V14.01,2013-03-13 06:42:00,
2013-03-13 03:48:00,43.1,41.2,29.71,WNW,296,1.0,8.0,93,0.00,,---,0.00,VWS V14.01,2013-03-13 06:48:00,
2013-03-13 03:54:00,42.9,41.0,29.71,West,261,0.0,8.0,93,0.00,,---,0.00,VWS V14.01,2013-03-13 06:54:00,
2013-03-13 04:00:00,42.7,40.8,29.71,West,269,0.0,8.0,93,0.00,,---,0.00,VWS V14.01,2013-03-13 07:00:00,
2013-03-13 04:07:00,42.4,40.5,29.71,WSW,242,0.0,8.0,93,0.00,,---,0.00,VWS V14.01,2013-03-13 07:07:00,
2013-03-13 04:13:00,42.1,40.2,29.70,NW,307,3.0,8.0,93,0.00,,---,0.00,VWS V14.01,2013-03-13 07:13:00,
2013-03-13 04:19:00,42.0,40.1,29.71,WSW,243,3.0,8.0,93,0.00,,---,0.00,VWS V14.01,2013-03-13 07:19:00,
2013-03-13 04:25:00,41.9,40.0,29.71,West,265,1.0,8.0,93,0.00,,---,0.00,VWS V14.01,2013-03-13 07:25:00,
2013-03-13 04:30:00,41.7,39.8,29.72,West,266,2.0,8.0,93,0.00,,---,0.00,VWS V14.01,2013-03-13 07:30:00,
2013-03-13 04:36:00,41.6,39.5,29.72,West,268,2.0,8.0,92,0.00,,---,0.00,VWS V14.01,2013-03-13 07:36:00,
2013-03-13 04:42:00,41.6,39.5,29.72,West,262,0.0,8.0,92,0.00,,---,0.00,VWS V14.01,2013-03-13 07:42:00,
2013-03-13 04:48:00,41.4,39.2,29.72,West,262,0.0,8.0,92,0.00,,---,0.00,VWS V14.01,2013-03-13 07:48:00,
2013-03-13 04:53:00,41.3,39.2,29.72,WNW,298,0.0,8.0,92,0.00,,---,0.00,VWS V14.01,2013-03-13 07:53:00,
2013-03-13 04:59:00,41.2,39.1,29.71,WNW,290,0.0,8.0,92,0.00,,---,0.00,VWS V14.01,2013-03-13 07:59:00,
2013-03-13 05:05:00,41.1,39.0,29.70,WSW,254,1.0,8.0,92,0.00,,---,0.00,VWS V14.01,2013-03-13 08:05:00,
2013-03-13 05:10:00,40.9,38.8,29.70,WSW,254,2.0,8.0,92,0.00,,---,0.00,VWS V14.01,2013-03-13 08:10:00,
2013-03-13 05:16:00,40.8,38.7,29.71,West,265,2.0,8.0,92,0.00,,---,0.00,VWS V14.01,2013-03-13 08:16:00,
2013-03-13 05:22:00,40.8,38.7,29.70,West,274,2.0,8.0,92,0.00,,---,0.00,VWS V14.01,2013-03-13 08:22:00,
2013-03-13 05:28:00,40.7,38.6,29.70,West,271,3.0,8.0,92,0.00,,---,0.00,VWS V14.01,2013-03-13 08:28:00,
2013-03-13 05:34:00,40.6,38.2,29.70,WNW,282,1.0,8.0,91,0.00,,---,0.00,VWS V14.01,2013-03-13 08:34:00,
2013-03-13 05:40:00,40.5,38.1,29.71,WSW,250,2.0,8.0,91,0.00,,---,0.00,VWS V14.01,2013-03-13 08:40:00,
2013-03-13 05:46:00,40.3,37.9,29.71,West,280,3.0,8.0,91,0.00,,---,0.00,VWS V14.01,2013-03-13 08:46:00,
2013-03-13 05:53:00,40.1,37.7,29.71,West,273,5.0,8.0,91,0.00,,---,0.00,VWS V14.01,2013-03-13 08:53:00,
2013-03-13 05:58:00,40.0,37.6,29.72,WSW,256,2.0,8.0,91,0.00,,---,0.00,VWS V14.01,2013-03-13 08:58:00,
2013-03-13 06:05:00,39.9,37.5,29.72,West,266,0.0,8.0,91,0.00,,---,0.00,VWS V14.01,2013-03-13 09:05:00,
2013-03-13 06:11:00,39.8,37.1,29.72,WNW,291,2.0,8.0,90,0.00,,---,0.00,VWS V14.01,2013-03-13 09:11:00,
2013-03-13 06:17:00,39.6,36.9,29.72,West,259,0.0,8.0,90,0.00,,---,0.00,VWS V14.01,2013-03-13 09:17:00,
2013-03-13 06:22:00,39.5,36.8,29.72,West,260,2.0,8.0,90,0.00,,---,0.00,VWS V14.01,2013-03-13 09:22:00,
2013-03-13 06:28:00,39.4,36.7,29.72,West,273,0.0,8.0,90,0.00,,---,0.00,VWS V14.01,2013-03-13 09:28:00,
2013-03-13 06:34:00,39.3,36.6,29.72,WNW,302,1.0,8.0,90,0.00,,---,0.00,VWS V14.01,2013-03-13 09:34:00,
2013-03-13 06:40:00,39.1,36.4,29.72,West,271,0.0,8.0,90,0.00,,---,0.00,VWS V14.01,2013-03-13 09:40:00,
2013-03-13 06:46:00,39.0,36.3,29.73,WSW,247,2.0,8.0,90,0.00,,---,0.00,VWS V14.01,2013-03-13 09:46:00,
2013-03-13 06:52:00,38.9,36.2,29.73,WSW,246,2.0,8.0,90,0.00,,---,0.00,VWS V14.01,2013-03-13 09:52:00,
2013-03-13 06:58:00,38.8,36.1,29.73,West,277,0.0,8.0,90,0.00,,---,0.00,VWS V14.01,2013-03-13 09:58:00,
2013-03-13 07:04:00,38.6,35.9,29.73,West,261,0.0,8.0,90,0.00,,---,0.00,VWS V14.01,2013-03-13 10:04:00,
2013-03-13 07:10:00,38.5,35.8,29.73,WSW,241,1.0,8.0,90,0.00,,---,0.00,VWS V14.01,2013-03-13 10:10:00,
2013-03-13 07:16:00,38.4,35.7,29.73,WSW,245,0.0,8.0,90,0.00,,---,0.00,VWS V14.01,2013-03-13 10:16:00,
2013-03-13 07:22:00,38.2,35.5,29.73,WSW,249,1.0,8.0,90,0.00,,---,0.00,VWS V14.01,2013-03-13 10:22:00,
2013-03-13 07:28:00,38.2,35.5,29.73,WNW,286,0.0,8.0,90,0.00,,---,0.00,VWS V14.01,2013-03-13 10:28:00,
2013-03-13 07:34:00,38.0,35.3,29.72,WNW,287,0.0,8.0,90,0.00,,---,0.00,VWS V14.01,2013-03-13 10:34:00,
2013-03-13 07:40:00,38.0,35.3,29.72,West,272,1.0,8.0,90,0.00,,---,0.00,VWS V14.01,2013-03-13 10:40:00,
2013-03-13 07:47:00,38.1,35.4,29.72,WSW,252,1.0,8.0,90,0.00,,---,0.00,VWS V14.01,2013-03-13 10:47:00,
2013-03-13 07:53:00,38.0,35.3,29.72,WSW,253,1.0,8.0,90,0.00,,---,0.00,VWS V14.01,2013-03-13 10:53:00,
2013-03-13 07:59:00,37.9,35.2,29.72,West,259,1.0,8.0,90,0.00,,---,0.00,VWS V14.01,2013-03-13 10:59:00,
2013-03-13 08:05:00,37.9,35.2,29.72,West,262,1.0,8.0,90,0.00,,---,0.00,VWS V14.01,2013-03-13 11:05:00,
2013-03-13 08:12:00,37.8,35.1,29.72,West,281,0.0,8.0,90,0.00,,---,0.00,VWS V14.01,2013-03-13 11:12:00,
2013-03-13 08:18:00,37.7,35.0,29.72,WSW,254,2.0,8.0,90,0.00,,---,0.00,VWS V14.01,2013-03-13 11:18:00,
2013-03-13 08:24:00,37.7,35.0,29.72,West,276,1.0,8.0,90,0.00,,---,0.00,VWS V14.01,2013-03-13 11:24:00,
2013-03-13 08:30:00,37.7,35.0,29.72,WSW,250,3.0,8.0,90,0.00,,---,0.00,VWS V14.01,2013-03-13 11:30:00,
2013-03-13 08:36:00,37.8,35.1,29.72,WNW,284,1.0,8.0,90,0.00,,---,0.00,VWS V14.01,2013-03-13 11:36:00,
2013-03-13 08:42:00,37.9,35.2,29.72,WSW,243,1.0,8.0,90,0.00,,---,0.00,VWS V14.01,2013-03-13 11:42:00,
2013-03-13 08:48:00,38.0,35.0,29.72,West,270,0.0,8.0,89,0.00,,---,0.00,VWS V14.01,2013-03-13 11:48:00,
2013-03-13 08:54:00,38.2,35.2,29.72,SW,235,3.0,8.0,89,0.00,,---,0.00,VWS V14.01,2013-03-13 11:54:00,
2013-03-13 09:00:00,38.2,35.2,29.72,WSW,244,0.0,8.0,89,0.00,,---,0.00,VWS V14.01,2013-03-13 12:00:00,
2013-03-13 09:06:00,38.3,35.1,29.72,West,281,2.0,8.0,88,0.00,,---,0.00,VWS V14.01,2013-03-13 12:06:00,
2013-03-13 09:12:00,38.3,35.3,29.72,North,360,0.0,8.0,89,0.00,,---,0.00,VWS V14.01,2013-03-13 12:12:00,
2013-03-13 09:18:00,38.5,35.3,29.73,WSW,246,1.0,8.0,88,0.00,,---,0.00,VWS V14.01,2013-03-13 12:18:00,
2013-03-13 09:24:00,38.7,35.2,29.72,North,9,0.0,8.0,87,0.00,,---,0.00,VWS V14.01,2013-03-13 12:24:00,
2013-03-13 09:30:00,39.0,35.5,29.73,WSW,252,0.0,8.0,87,0.00,,---,0.00,VWS V14.01,2013-03-13 12:30:00,
2013-03-13 09:36:00,39.1,35.3,29.72,WSW,241,1.0,8.0,86,0.00,,---,0.00,VWS V14.01,2013-03-13 12:36:00,
2013-03-13 09:42:00,39.4,35.6,29.73,SW,217,2.0,8.0,86,0.00,,---,0.00,VWS V14.01,2013-03-13 12:42:00,
2013-03-13 09:48:00,39.5,35.7,29.73,West,275,2.0,8.0,86,0.00,,---,0.00,VWS V14.01,2013-03-13 12:48:00,
2013-03-13 09:54:00,39.8,35.7,29.72,SW,236,3.0,8.0,85,0.00,,---,0.00,VWS V14.01,2013-03-13 12:54:00,
2013-03-13 10:00:00,40.2,36.1,29.72,West,281,6.0,8.0,85,0.00,,---,0.00,VWS V14.01,2013-03-13 13:00:00,
2013-03-13 10:07:00,40.8,36.0,29.72,WSW,244,4.0,8.0,83,0.00,,---,0.00,VWS V14.01,2013-03-13 13:07:00,
2013-03-13 10:13:00,41.2,37.0,29.72,SW,226,0.0,8.0,85,0.00,,---,0.00,VWS V14.01,2013-03-13 13:13:00,
2013-03-13 10:19:00,41.6,36.8,29.72,SW,220,2.0,8.0,83,0.00,,---,0.00,VWS V14.01,2013-03-13 13:19:00,
2013-03-13 10:25:00,42.2,36.8,29.71,WSW,254,2.0,8.0,81,0.00,,---,0.00,VWS V14.01,2013-03-13 13:25:00,
2013-03-13 10:31:00,42.8,37.4,29.72,WSW,240,0.0,8.0,81,0.00,,---,0.00,VWS V14.01,2013-03-13 13:31:00,
2013-03-13 10:37:00,43.2,37.5,29.72,WNW,292,1.0,8.0,80,0.00,,---,0.00,VWS V14.01,2013-03-13 13:37:00,
2013-03-13 10:43:00,44.1,38.0,29.72,NNW,343,4.0,8.0,79,0.00,,---,0.00,VWS V14.01,2013-03-13 13:43:00,
2013-03-13 10:49:00,44.6,37.8,29.72,NNW,339,1.0,8.0,77,0.00,,---,0.00,VWS V14.01,2013-03-13 13:49:00,
2013-03-13 10:55:00,45.2,38.1,29.72,NW,323,2.0,8.0,76,0.00,,---,0.00,VWS V14.01,2013-03-13 13:55:00,
2013-03-13 11:01:00,46.0,38.9,29.71,NNW,342,2.0,8.0,76,0.00,,---,0.00,VWS V14.01,2013-03-13 14:01:00,
2013-03-13 11:06:00,46.5,39.0,29.71,WSW,257,0.0,8.0,75,0.00,,---,0.00,VWS V14.01,2013-03-13 14:06:00,
2013-03-13 11:12:00,47.4,39.9,29.71,North,10,0.0,8.0,75,0.00,,---,0.00,VWS V14.01,2013-03-13 14:12:00,
2013-03-13 11:18:00,47.6,38.3,29.72,WSW,249,2.0,8.0,70,0.00,,---,0.00,VWS V14.01,2013-03-13 14:18:00,
2013-03-13 11:24:00,47.7,38.8,29.72,WSW,256,0.0,8.0,71,0.00,,---,0.00,VWS V14.01,2013-03-13 14:24:00,
2013-03-13 11:30:00,47.7,37.7,29.72,WSW,242,1.0,8.0,68,0.00,,---,0.00,VWS V14.01,2013-03-13 14:30:00,
2013-03-13 11:37:00,47.5,37.8,29.71,NNW,348,0.0,8.0,69,0.00,,---,0.00,VWS V14.01,2013-03-13 14:37:00,
2013-03-13 11:43:00,48.1,38.8,29.71,WSW,258,0.0,8.0,70,0.00,,---,0.00,VWS V14.01,2013-03-13 14:43:00,
2013-03-13 11:49:00,48.3,38.6,29.71,West,263,1.0,8.0,69,0.00,,---,0.00,VWS V14.01,2013-03-13 14:49:00,
2013-03-13 11:55:00,48.5,37.7,29.71,WNW,288,2.0,8.0,66,0.00,,---,0.00,VWS V14.01,2013-03-13 14:55:00,
2013-03-13 12:01:00,48.0,38.0,29.71,NNW,327,0.0,8.0,68,0.00,,---,0.00,VWS V14.01,2013-03-13 15:01:00,
2013-03-13 12:06:00,47.9,37.9,29.71,North,5,3.0,8.0,68,0.00,,---,0.00,VWS V14.01,2013-03-13 15:06:00,
2013-03-13 12:12:00,48.4,38.3,29.71,North,360,2.0,8.0,68,0.00,,---,0.00,VWS V14.01,2013-03-13 15:12:00,
2013-03-13 12:18:00,49.0,38.5,29.70,NNW,343,0.0,8.0,67,0.00,,---,0.00,VWS V14.01,2013-03-13 15:18:00,
2013-03-13 12:24:00,49.2,38.7,29.70,West,271,3.0,8.0,67,0.00,,---,0.00,VWS V14.01,2013-03-13 15:24:00,
2013-03-13 12:30:00,48.9,38.8,29.70,NW,325,0.0,8.0,68,0.00,,---,0.00,VWS V14.01,2013-03-13 15:30:00,
2013-03-13 12:37:00,49.5,39.0,29.70,NNW,344,0.0,8.0,67,0.00,,---,0.00,VWS V14.01,2013-03-13 15:37:00,
2013-03-13 12:43:00,50.6,38.1,29.70,NNW,327,3.0,8.0,62,0.00,,---,0.00,VWS V14.01,2013-03-13 15:43:00,
2013-03-13 12:49:00,50.7,38.2,29.69,SW,223,4.0,8.0,62,0.00,,---,0.00,VWS V14.01,2013-03-13 15:49:00,
2013-03-13 12:55:00,51.2,37.4,29.70,WNW,288,2.0,8.0,59,0.00,,---,0.00,VWS V14.01,2013-03-13 15:55:00,
2013-03-13 13:01:00,51.2,37.4,29.70,South,186,1.0,8.0,59,0.00,,---,0.00,VWS V14.01,2013-03-13 16:01:00,
2013-03-13 13:06:00,51.7,37.4,29.70,SSW,202,1.0,8.0,58,0.00,,---,0.00,VWS V14.01,2013-03-13 16:06:00,
2013-03-13 13:12:00,52.5,37.7,29.70,WSW,251,2.0,8.0,57,0.00,,---,0.00,VWS V14.01,2013-03-13 16:12:00,
2013-03-13 13:18:00,52.8,36.6,29.70,NW,311,2.0,8.0,54,0.00,,---,0.00,VWS V14.01,2013-03-13 16:18:00,
2013-03-13 13:23:00,52.7,37.0,29.70,SSW,192,2.0,8.0,55,0.00,,---,0.00,VWS V14.01,2013-03-13 16:23:00,
2013-03-13 13:29:00,53.2,37.0,29.70,SW,232,0.0,8.0,54,0.00,,---,0.00,VWS V14.01,2013-03-13 16:29:00,
2013-03-13 13:35:00,53.6,37.4,29.70,West,270,1.0,8.0,54,0.00,,---,0.00,VWS V14.01,2013-03-13 16:35:00,
2013-03-13 13:43:00,53.9,36.7,29.70,WSW,242,6.0,8.0,52,0.00,,---,0.00,VWS V14.01,2013-03-13 16:43:00,
2013-03-13 13:49:00,53.2,35.6,29.70,WSW,248,6.0,8.0,51,0.00,,---,0.00,VWS V14.01,2013-03-13 16:49:00,
2013-03-13 13:54:00,53.0,35.4,29.70,NNW,329,4.0,8.0,51,0.00,,---,0.00,VWS V14.01,2013-03-13 16:54:00,
2013-03-13 14:00:00,52.9,34.8,29.70,NW,315,4.0,8.0,50,0.00,,---,0.00,VWS V14.01,2013-03-13 17:00:00,
2013-03-13 14:07:00,53.0,35.9,29.70,NW,316,3.0,8.0,52,0.00,,---,0.00,VWS V14.01,2013-03-13 17:07:00,
2013-03-13 14:12:00,52.9,35.3,29.69,WNW,285,2.0,8.0,51,0.00,,---,0.00,VWS V14.01,2013-03-13 17:12:00,
2013-03-13 14:19:00,52.6,34.5,29.70,SW,221,3.0,8.0,50,0.00,,---,0.00,VWS V14.01,2013-03-13 17:19:00,
2013-03-13 14:25:00,52.3,34.7,29.69,SSW,201,3.0,8.0,51,0.00,,---,0.00,VWS V14.01,2013-03-13 17:25:00,
2013-03-13 14:30:00,52.7,35.6,29.69,WSW,239,2.0,8.0,52,0.00,,---,0.00,VWS V14.01,2013-03-13 17:30:00,
2013-03-13 14:37:00,53.1,35.0,29.69,SW,225,3.0,8.0,50,0.00,,---,0.00,VWS V14.01,2013-03-13 17:37:00,
2013-03-13 14:42:00,52.4,34.3,29.69,WSW,247,2.0,8.0,50,0.00,,---,0.00,VWS V14.01,2013-03-13 17:42:00,
2013-03-13 14:49:00,52.2,34.1,29.69,WSW,244,2.0,8.0,50,0.00,,---,0.00,VWS V14.01,2013-03-13 17:49:00,
2013-03-13 14:55:00,52.7,35.1,29.69,SW,236,4.0,8.0,51,0.00,,---,0.00,VWS V14.01,2013-03-13 17:55:00,
2013-03-13 15:00:00,52.0,32.9,29.69,WSW,244,4.0,8.0,48,0.00,,---,0.00,VWS V14.01,2013-03-13 18:00:00,
2013-03-13 15:06:00,51.5,33.0,29.68,WSW,257,1.0,8.0,49,0.00,,---,0.00,VWS V14.01,2013-03-13 18:06:00,
2013-03-13 15:12:00,51.9,33.4,29.69,SW,234,4.0,8.0,49,0.00,,---,0.00,VWS V14.01,2013-03-13 18:12:00,
2013-03-13 15:18:00,51.6,33.6,29.68,NNE,26,3.0,8.0,50,0.00,,---,0.00,VWS V14.01,2013-03-13 18:18:00,
2013-03-13 15:24:00,51.3,33.3,29.68,West,279,1.0,8.0,50,0.00,,---,0.00,VWS V14.01,2013-03-13 18:24:00,
2013-03-13 15:30:00,50.8,33.3,29.68,WSW,244,1.0,8.0,51,0.00,,---,0.00,VWS V14.01,2013-03-13 18:30:00,
2013-03-13 15:37:00,51.0,33.0,29.68,West,267,4.0,8.0,50,0.00,,---,0.00,VWS V14.01,2013-03-13 18:37:00,
2013-03-13 15:43:00,50.8,32.3,29.67,WSW,243,1.0,8.0,49,0.00,,---,0.00,VWS V14.01,2013-03-13 18:43:00,
2013-03-13 15:49:00,50.2,32.3,29.68,SW,234,4.0,8.0,50,0.00,,---,0.00,VWS V14.01,2013-03-13 18:49:00,
2013-03-13 15:55:00,50.5,33.1,29.67,NW,304,0.0,8.0,51,0.00,,---,0.00,VWS V14.01,2013-03-13 18:55:00,
2013-03-13 16:01:00,51.1,32.6,29.67,West,274,1.0,8.0,49,0.00,,---,0.00,VWS V14.01,2013-03-13 19:01:00,
2013-03-13 16:07:00,51.5,32.5,29.67,NW,313,2.0,8.0,48,0.00,,---,0.00,VWS V14.01,2013-03-13 19:07:00,
2013-03-13 16:13:00,51.9,32.8,29.67,WNW,287,4.0,8.0,48,0.00,,---,0.00,VWS V14.01,2013-03-13 19:13:00,
2013-03-13 16:19:00,51.2,31.1,29.68,West,273,3.0,8.0,46,0.00,,---,0.00,VWS V14.01,2013-03-13 19:19:00,
2013-03-13 16:25:00,51.1,30.5,29.67,SW,225,3.0,8.0,45,0.00,,---,0.00,VWS V14.01,2013-03-13 19:25:00,
2013-03-13 16:31:00,51.2,31.7,29.67,SSW,202,6.0,8.0,47,0.00,,---,0.00,VWS V14.01,2013-03-13 19:31:00,
2013-03-13 16:37:00,51.0,30.4,29.67,WSW,237,2.0,8.0,45,0.00,,---,0.00,VWS V14.01,2013-03-13 19:37:00,
2013-03-13 16:43:00,50.8,30.8,29.67,WSW,252,1.0,8.0,46,0.00,,---,0.00,VWS V14.01,2013-03-13 19:43:00,
2013-03-13 16:49:00,50.6,30.6,29.67,WNW,283,4.0,8.0,46,0.00,,---,0.00,VWS V14.01,2013-03-13 19:49:00,
2013-03-13 16:55:00,50.5,31.6,29.67,WNW,296,0.0,8.0,48,0.00,,---,0.00,VWS V14.01,2013-03-13 19:55:00,
2013-03-13 17:00:00,50.1,31.2,29.67,WSW,248,2.0,8.0,48,0.00,,---,0.00,VWS V14.01,2013-03-13 20:00:00,
2013-03-13 17:30:00,49.3,28.9,29.67,SW,225,2.0,9.0,45,0.00,,---,0.00,VWS V14.01,2013-03-13 20:30:00,
2013-03-13 18:00:00,48.1,27.8,29.68,WSW,248,3.0,14.0,45,0.00,,---,0.00,VWS V14.01,2013-03-13 21:00:00,
2013-03-13 18:30:00,47.0,28.3,29.69,NW,315,2.0,8.0,48,0.00,,---,0.00,VWS V14.01,2013-03-13 21:30:00,
2013-03-13 19:00:00,45.9,26.3,29.69,WSW,248,2.0,9.0,46,0.00,,---,0.00,VWS V14.01,2013-03-13 22:00:00,
2013-03-13 19:30:00,44.7,26.2,29.70,WNW,292,2.0,10.0,48,0.00,,---,0.00,VWS V14.01,2013-03-13 22:30:00,
2013-03-13 20:00:00,43.2,25.8,29.71,West,270,1.0,9.0,50,0.00,,---,0.00,VWS V14.01,2013-03-13 23:00:00,
2013-03-13 20:30:00,42.1,25.3,29.72,West,270,0.0,7.0,51,0.00,,---,0.00,VWS V14.01,2013-03-13 23:30:00,
2013-03-13 21:00:00,40.3,26.7,29.72,West,270,0.0,0.0,58,0.00,,---,0.00,VWS V14.01,2013-03-14 00:00:00,
2013-03-13 21:30:00,38.0,26.1,29.74,SW,225,0.0,2.0,62,0.00,,---,0.00,VWS V14.01,2013-03-14 00:30:00,
2013-03-13 22:00:00,36.3,25.7,29.74,SW,225,0.0,0.0,65,0.00,,---,0.00,VWS V14.01,2013-03-14 01:00:00,
2013-03-13 22:30:00,35.3,26.2,29.75,SW,225,0.0,0.0,69,0.00,,---,0.00,VWS V14.01,2013-03-14 01:30:00,
2013-03-13 23:00:00,33.8,25.4,29.75,SW,225,0.0,0.0,71,0.00,,---,0.00,VWS V14.01,2013-03-14 02:00:00,
2013-03-13 23:30:00,33.2,25.5,29.75,SW,225,0.0,0.0,73,0.00,,---,0.00,VWS V14.01,2013-03-14 02:30:00,